Powrót do katalogu

STARLINK-33756

AktywnyŁącznośćVLEO
NORAD 63458·PAYLOAD·🇺🇸 United States

Wystrzelony Apr 4, 2025 z Vandenberg Space Force Base

Loading…

Następne Przeloty (najbliższe 24 godziny)

TLE

ŚwieżeSource: CelesTrak SupGP

Epoka: Sep 15, 2026, 02:29 UTC

1 63458C 25069AB  26258.10395833  .00073041  00000+0  21583-2 0  2586
2 63458  53.1584 335.0106 0001147  90.1889 221.9390 15.34350193    11

Śledź STARLINK-33756 w czasie rzeczywistym z AllMySat

Download on the App Store